Weather History for Seldovia, AK

Change the Weather History Date:

Friday, May 3, 2013

  Actual Average (PAHO) Record (PAHO)
Temperature  
Mean Temperature 40 °F -  
Max Temperature 44 °F 47 °F 63 °F (2014)
Min Temperature 37 °F 33 °F 16 °F (1945)
Degree Days  
Heating Degree Days 24    
Moisture  
Dew Point 34 °F    
Average Humidity 80    
Maximum Humidity 93    
Minimum Humidity 55    
Precipitation  
Precipitation 0.10 in - - ()
Sea Level Pressure  
Sea Level Pressure 29.86 in    
Wind  
Wind Speed 2 mph (NNE)    
Max Wind Speed 8 mph    
Max Gust Speed -    
Visibility 9 miles    
Events Rain    
Averages and records for this station are not official NWS values.
T = Trace of Precipitation, MM = Missing Value Source: NWS Daily Summary

Daily Weather History Graph

Daily Weather History Graph

Search for Another Location

Airport:

Trip Planner

Search our weather history database for the weather conditions in past years. The results will help you decide how hot, cold, wet, or windy it might be!

Date:

Astronomy

May. 03, 2013 Rise Set
Actual Time 6:01 AM AKDT 10:07 PM AKDT
Civil Twilight 5:08 AM AKDT 11:01 PM AKDT
Nautical Twilight 3:44 AM AKDT 12:27 AM AKDT
Astronomical Twilight Sun does not rise Sun does not rise
Moon 4:02 AM AKDT (5/3) 2:48 PM AKDT (5/3)
Length of Visible Light 17h 53m
Length of Day
16h 06m
Waning Crescent, 35% of the Moon is Illuminated
May 3
Waning Crescent
May 9
New
May 17
First Quarter
May 24
Full
May 31
Last Quarter

Hourly Weather History & Observations

Time (AKDT) Temp. Windchill Dew Point Humidity Pressure Visibility Wind Dir Wind Speed Gust Speed Precip Events Conditions
12:18 AM 39.2 °F 33.6 °F 35.6 °F 87% 29.78 in 10.0 mi NNE 8.1 mph - N/A   Overcast
12:53 AM 39.9 °F - 36.0 °F 86% 29.79 in 10.0 mi Calm Calm - N/A   Overcast
1:41 AM 39.2 °F 37.0 °F 35.6 °F 87% 29.78 in 10.0 mi NNE 3.5 mph - 0.00 in Rain Light Rain
1:53 AM 39.0 °F 36.8 °F 36.0 °F 89% 29.78 in 10.0 mi NNW 3.5 mph - 0.00 in   Overcast
2:53 AM 39.0 °F - 36.0 °F 89% 29.78 in 10.0 mi Calm Calm - 0.00 in Rain Light Rain
3:53 AM 42.1 °F - 37.9 °F 85% 29.79 in 10.0 mi Calm Calm - 0.00 in Rain Light Rain
4:53 AM 39.9 °F - 37.0 °F 89% 29.79 in 10.0 mi Calm Calm - 0.01 in Rain Light Rain
5:53 AM 39.0 °F - 37.0 °F 93% 29.80 in 10.0 mi Calm Calm - 0.00 in Rain Light Rain
6:53 AM 39.9 °F - 37.9 °F 93% 29.80 in 10.0 mi Calm Calm - 0.00 in Rain Light Rain
7:53 AM 39.9 °F - 37.9 °F 93% 29.82 in 10.0 mi Calm Calm - 0.02 in Rain Light Rain
8:02 AM 39.2 °F - 37.4 °F 93% 29.82 in 10.0 mi Calm Calm - 0.00 in Rain Light Rain
8:53 AM 37.9 °F 35.5 °F 36.0 °F 93% 29.85 in 5.0 mi East 3.5 mph - 0.02 in Rain Light Rain
9:38 AM 37.4 °F 33.8 °F 35.6 °F 93% 29.86 in 4.0 mi NE 4.6 mph - 0.02 in Rain Light Rain
9:53 AM 37.9 °F - 36.0 °F 93% 29.86 in 5.0 mi Calm Calm - 0.03 in Rain Light Rain
10:53 AM 39.0 °F - 36.0 °F 89% 29.88 in 5.0 mi Calm Calm - 0.01 in Rain Light Rain
11:45 AM 39.2 °F - 37.4 °F 93% 29.89 in 10.0 mi Calm Calm - 0.00 in   Overcast
11:53 AM 41.0 °F - 37.9 °F 89% 29.89 in 10.0 mi Calm Calm - 0.00 in   Overcast
12:11 PM 41.0 °F - 37.4 °F 87% 29.89 in 10.0 mi Calm Calm - N/A   Overcast
12:53 PM 41.0 °F - 37.0 °F 86% 29.90 in 10.0 mi Calm Calm - N/A   Overcast
1:53 PM 41.0 °F 37.1 °F 34.0 °F 76% 29.91 in 10.0 mi Variable 5.8 mph - N/A   Overcast
2:53 PM 42.1 °F 40.2 °F 33.1 °F 70% 29.92 in 10.0 mi NE 3.5 mph - 0.01 in   Overcast
3:53 PM 44.1 °F 41.5 °F 32.0 °F 63% 29.93 in 10.0 mi NNE 4.6 mph - N/A   Overcast
4:53 PM 42.1 °F - 28.9 °F 60% 29.92 in 10.0 mi Calm Calm - N/A   Overcast
5:53 PM 42.1 °F 40.2 °F 28.9 °F 60% 29.92 in 10.0 mi NNE 3.5 mph - N/A   Overcast
6:53 PM 42.1 °F - 27.0 °F 55% 29.93 in 10.0 mi Calm Calm - N/A   Overcast
7:53 PM 42.1 °F - 27.0 °F 55% 29.92 in 10.0 mi Calm Calm - N/A   Overcast
8:53 PM 41.0 °F - 26.1 °F 55% 29.92 in 10.0 mi Calm Calm - N/A   Overcast
9:53 PM 39.0 °F - 28.0 °F 65% 29.91 in 10.0 mi Calm Calm - N/A   Mostly Cloudy
10:53 PM 37.9 °F - 28.9 °F 70% 29.92 in 10.0 mi Calm Calm - N/A   Overcast
11:53 PM 37.0 °F - 30.0 °F 76% 29.91 in 10.0 mi Calm Calm - N/A   Overcast